User: anonymous   Login
Location: Fisheating Creek Campgrounds
(26.9333°N, 81.3167°W)
Time: 06:10:52
(UTC-04:00)
Language:

NATO 3D Rocket - Orbit

View from above orbital plane
View from above orbital plane
View from above satellite
View from above satellite

Ground track
Ground track

The orbit data is extracted from the following two-line orbital elements,

1 15392U 84115B   17116.66604929 +.00000236 +00000-0 +74511-4 0  9990
2 15392 021.4953 186.5709 1034500 323.7787 029.6707 12.45547682459791
Epoch (UTC): 26 April 2017 15:59:06
Eccentricity: 0.1034500
inclination: 21.4953°
perigee height: 670 km
apogee height: 2296 km
right ascension of ascending node: 186.5709°
argument of perigee: 323.7787°
revolutions per day: 12.45547682
mean anomaly at epoch: 29.6707°
orbit number at epoch: 45979

The dashed part of the orbit path shows where the satellite is in the earth's shadow,  

DLR